Theta_e
325 321 323 322 322 322 322 322 323 324 324 323 323 323 321 327 326 326 326 326 327 327 327 326 325 324 325 324 322 321 321 321 321 321 320 323 326 326 327 326 324 326 328 330
322 322 323 322 322 322 322 323 322 324 324 322 323 322 321 322 325 326 326 327 326 326 326 325 324 324 322 321 321 321 321 321 320 319 319 324 325 324 324 323 324 330 331 332
321 322 324 322 322 322 323 324 324 322 321 320 320 320 320 322 327 327 326 326 326 326 326 323 322 322 321 321 321 320 321 321 320 319 318 321 322 324 324 325 324 322 326 330
321 321 321 323 324 322 321 322 323 325 320 319 321 319 320 325 326 327 326 326 327 326 323 323 322 321 321 321 321 321 321 321 320 320 319 318 319 320 322 325 323 322 322 321
320 322 321 322 322 320 319 320 319 320 318 321 321 322 328 329 328 327 326 325 327 325 323 322 321 321 321 321 320 321 321 321 320 320 319 319 318 316 315 317 319 320 318 316
319 321 321 320 320 319 319 318 318 321 319 324 323 326 329 329 330 327 326 325 326 323 323 321 321 321 320 319 320 321 321 321 321 320 320 319 318 317 318 318 317 317 316 315
321 319 319 319 318 318 319 322 325 327 325 326 325 327 328 328 328 327 326 325 323 323 322 321 321 320 319 319 321 322 321 321 321 320 319 318 318 318 318 317 317 317 316 315
321 324 319 319 319 320 321 320 325 320 323 324 324 331 328 326 326 326 324 323 323 323 322 321 319 319 320 320 320 321 321 320 319 319 318 314 314 315 313 313 312 312 312 312
324 324 320 320 318 320 326 326 327 325 329 322 323 328 327 326 325 325 325 324 324 323 322 320 319 319 320 320 321 321 320 320 319 318 317 314 314 312 311 310 310 311 311 311
323 325 322 319 318 317 321 323 324 329 324 330 325 329 331 327 327 325 324 324 323 323 320 319 319 318 318 320 321 320 320 319 319 318 316 316 313 310 309 308 309 309 310 309
320 322 322 320 318 317 319 321 321 325 328 324 323 324 325 325 325 325 324 324 324 321 319 319 318 318 319 320 320 319 319 318 318 316 315 314 311 307 307 307 307 307 308 308
322 323 325 324 322 319 319 319 322 326 326 325 325 326 325 324 323 324 323 323 321 319 320 319 318 319 320 320 319 319 318 315 313 314 313 311 308 306 306 305 306 307 308 309
323 321 319 318 318 321 322 322 320 321 323 325 325 326 323 324 323 323 324 322 319 320 320 320 320 320 320 319 319 318 314 313 313 312 309 306 303 303 304 304 305 306 307 310
322 321 322 324 326 320 323 326 324 320 324 325 326 326 325 324 324 323 321 321 320 320 320 320 320 320 319 319 318 315 313 313 310 307 304 302 301 302 303 304 305 307 308 310
318 319 320 320 320 320 321 321 319 318 319 321 321 324 325 324 323 323 321 320 320 320 320 320 320 319 318 317 315 313 312 309 305 303 301 301 301 301 302 303 305 307 309 313
319 321 322 323 323 322 321 320 320 320 318 318 319 324 321 323 322 320 320 319 319 320 319 319 318 318 317 315 313 311 308 304 302 300 299 300 300 301 302 303 304 306 310 312
323 321 324 325 325 324 323 323 322 321 319 321 323 323 321 321 320 319 319 319 320 318 319 318 317 316 314 312 310 308 304 301 300 299 299 300 300 300 301 302 304 306 308 311
320 321 324 324 324 327 323 321 321 324 324 324 323 323 321 320 319 318 318 319 318 318 318 317 315 314 312 310 308 306 301 300 298 298 299 299 299 300 301 302 304 305 307 310
321 321 320 321 323 323 323 324 325 325 326 324 324 321 319 318 317 318 317 317 318 318 317 316 315 312 310 308 306 302 299 298 298 298 298 298 299 300 301 302 303 303 307 308
320 321 321 320 323 320 322 325 323 323 327 324 321 319 318 318 316 315 318 316 318 317 317 315 312 310 309 306 302 299 297 297 297 297 297 298 299 299 300 301 302 303 303 305
323 322 321 320 321 321 325 323 323 324 324 323 319 317 317 317 317 317 317 318 317 317 315 312 310 309 306 303 300 297 296 296 296 297 297 299 299 299 300 300 301 301 303 304
323 324 324 324 324 324 322 323 325 322 319 318 317 316 316 316 316 317 316 318 317 316 314 312 309 307 304 301 297 296 296 296 296 297 298 298 299 300 300 300 301 300 301 302
323 322 323 322 324 323 318 321 320 319 318 317 316 315 315 315 315 316 316 317 316 315 313 310 308 306 302 298 296 296 296 296 296 296 297 297 299 299 300 301 300 300 299 299
321 321 320 322 324 323 320 320 319 320 317 316 315 315 315 316 316 315 316 316 315 314 311 309 307 304 300 297 296 296 296 296 296 296 296 297 298 299 300 300 300 300 299 298
319 318 319 319 321 322 321 317 317 316 316 315 314 315 314 316 315 315 315 315 314 312 311 308 305 302 298 297 296 296 296 296 295 295 296 297 297 298 299 299 299 299 298 297
318 319 318 318 317 317 317 316 315 314 314 314 315 314 316 315 314 314 315 314 314 313 309 308 304 301 298 297 297 297 297 297 296 296 296 297 298 298 298 297 297 297 297 298
Wind_Speed
19 1 3 2 4 5 5 6 7 4 7 6 4 4 5 20 16 11 16 13 15 11 5 4 14 13 9 12 17 21 22 23 24 29 35 32 27 28 27 23 21 21 22 22
2 6 3 4 3 5 6 6 6 5 5 4 3 8 9 7 14 16 20 18 12 4 3 8 8 5 6 14 17 19 19 19 23 27 31 30 30 31 29 30 27 21 18 17
3 3 4 1 3 5 5 4 3 3 6 7 6 8 10 7 22 22 19 12 3 2 3 2 9 4 12 14 14 17 17 20 23 27 29 28 30 33 35 34 31 24 26 27
3 5 4 3 5 4 4 8 10 9 6 3 4 5 6 10 10 10 17 10 3 3 2 8 3 11 15 10 16 20 17 20 23 25 28 28 30 35 36 35 37 37 34 30
7 3 5 5 2 6 4 7 6 5 5 3 10 2 2 8 5 2 12 9 4 5 5 9 11 13 5 17 20 15 17 17 21 22 23 28 35 36 39 40 42 44 45 44
8 2 1 2 4 1 5 5 7 6 3 1 11 5 2 3 6 3 4 13 10 6 9 13 14 10 16 21 19 16 13 18 18 21 27 34 36 37 38 42 45 47 47 44
9 7 5 4 3 7 6 2 3 5 3 6 4 4 3 7 9 7 9 3 10 12 11 12 13 15 21 18 15 12 15 15 19 25 30 33 33 37 41 42 43 46 48 48
5 5 9 7 4 2 4 6 5 4 1 5 8 4 2 7 14 13 15 13 12 12 10 9 12 19 16 12 15 13 13 19 24 29 35 40 48 48 49 52 47 43 41 40
4 3 6 5 4 2 4 4 8 4 4 3 2 4 4 9 7 8 6 7 10 12 8 9 18 18 14 17 14 16 21 26 31 37 43 46 52 54 53 41 42 42 42 42
1 3 4 6 2 6 3 1 1 3 2 3 4 2 3 5 5 4 6 8 15 15 11 17 14 16 20 19 17 23 29 34 38 42 45 50 56 56 43 40 41 40 40 39
3 4 7 5 6 6 1 2 2 4 5 5 2 5 5 9 6 2 6 12 17 10 17 12 15 20 19 19 24 29 34 38 42 48 52 56 60 47 42 38 38 37 37 36
3 3 3 6 9 4 4 1 5 5 4 3 5 5 8 8 11 2 3 3 9 14 10 14 18 18 18 19 26 32 39 47 50 51 54 58 48 42 39 39 35 33 35 35
1 1 2 6 6 4 2 2 4 3 4 5 5 5 7 9 4 1 6 6 13 13 17 19 18 18 19 26 33 40 47 46 48 51 56 46 38 37 38 37 36 34 32 32
7 3 3 5 3 4 5 5 8 5 4 4 6 8 5 1 5 7 10 14 14 17 20 19 20 19 26 34 40 45 46 46 52 53 42 37 38 36 34 35 35 33 30 31
5 3 1 8 8 11 12 12 10 5 6 6 8 8 1 2 2 4 13 14 15 17 15 18 19 26 32 37 39 42 45 53 50 40 33 35 35 34 34 32 29 27 26 24
3 2 2 4 10 12 13 12 12 8 7 10 9 3 6 6 4 14 12 11 13 14 17 17 20 25 30 33 37 43 51 48 38 33 34 34 31 31 30 28 26 24 20 19
7 5 3 4 6 12 9 6 9 9 7 5 5 6 11 5 12 11 9 11 15 15 13 14 19 23 27 32 39 48 46 36 32 32 32 31 29 29 27 25 21 18 15 11
3 2 2 2 4 4 7 7 12 3 12 12 9 12 11 11 14 19 14 12 14 12 10 15 19 25 32 36 44 44 36 32 31 32 31 28 28 26 24 19 15 13 11 9
7 4 1 2 3 9 14 7 5 4 5 8 9 9 17 19 14 12 23 16 15 13 16 18 24 30 34 41 43 35 31 30 31 28 28 26 24 22 18 17 15 17 14 14
8 5 5 3 2 3 2 2 8 5 3 14 18 13 15 14 4 5 16 16 11 12 17 22 30 33 38 41 34 29 29 31 27 25 26 21 20 16 15 16 18 18 21 21
1 1 7 4 4 5 7 12 7 5 4 5 9 11 11 3 3 15 14 13 12 16 20 28 34 35 37 34 29 27 28 27 23 21 20 18 15 14 14 16 19 22 24 26
5 5 3 1 2 7 6 5 5 2 15 16 11 12 12 13 14 12 16 11 15 19 25 32 34 34 34 29 26 25 25 23 20 19 17 14 13 12 14 17 21 26 30 33
4 7 6 7 6 11 7 4 17 11 10 10 6 9 11 14 16 13 16 12 17 20 26 32 32 32 29 26 25 24 21 20 19 18 16 15 13 14 14 17 22 28 33 37
4 6 4 3 4 12 15 10 9 9 8 8 7 9 11 18 13 15 15 15 17 21 27 29 30 29 26 25 26 22 18 18 18 17 18 19 19 19 20 21 25 30 35 39
1 5 3 1 4 12 15 12 13 12 10 8 7 9 13 10 15 15 14 14 16 20 25 27 27 24 22 24 26 25 20 20 21 22 24 25 29 32 32 32 32 33 35 38
2 2 2 3 10 7 12 14 9 5 4 6 6 8 8 11 12 13 13 12 14 19 22 25 23 20 20 24 23 21 21 21 21 25 29 31 32 35 39 39 37 36 37 37
Wind_Direction
240 279 275 29 9 3 316 305 316 94 153 126 143 246 268 187 193 160 163 151 123 109 96 339 322 313 305 321 335 335 338 335 335 341 341 338 334 327 318 308 297 283 284 281
296 250 74 6 34 355 318 301 298 304 33 91 146 249 246 233 182 169 123 102 90 57 322 311 321 309 324 333 336 339 328 327 335 340 340 334 330 326 324 318 300 287 282 284
210 98 130 39 215 240 284 298 293 51 357 349 323 304 268 257 124 109 111 106 107 272 240 339 339 346 341 337 335 328 320 322 330 334 334 331 329 325 326 326 324 310 284 280
319 117 1 293 314 93 334 21 10 7 18 283 45 278 311 94 54 76 109 138 216 156 11 323 344 335 328 328 336 324 315 323 330 332 332 335 327 324 322 319 316 314 311 303
261 122 156 305 89 56 259 27 345 300 287 332 295 2 240 99 63 127 152 189 269 287 343 41 7 350 10 344 339 318 320 329 332 333 333 329 326 325 322 313 308 307 306 304
259 95 342 271 19 337 299 305 295 267 194 309 250 209 270 140 163 184 195 211 227 19 14 -0 352 347 339 339 336 317 324 329 328 329 328 326 324 322 315 310 306 305 307 304
265 203 171 87 303 272 202 21 329 347 42 220 331 328 219 137 146 166 197 178 27 4 354 351 343 342 340 331 333 332 323 322 327 326 323 323 317 313 310 305 302 301 300 298
260 292 162 153 215 47 292 136 144 200 35 288 332 30 5 64 65 71 49 25 359 332 332 352 5 348 335 341 339 336 330 328 325 325 323 325 323 316 311 305 303 300 299 298
1 35 55 89 59 96 330 56 164 108 20 29 233 99 51 66 36 29 358 331 314 317 331 2 347 344 11 0 352 339 331 326 323 320 319 321 319 315 314 309 302 299 298 294
303 346 223 138 173 272 215 284 49 25 129 227 314 76 201 142 154 246 318 341 332 313 357 353 20 13 2 357 345 333 329 323 320 317 319 319 317 317 313 308 304 300 295 297
153 154 287 135 192 205 177 256 202 133 136 171 193 268 184 193 171 162 276 311 316 348 356 21 12 358 358 344 335 328 324 324 322 321 320 319 319 318 311 308 304 300 301 301
148 134 265 272 298 166 129 269 127 123 266 191 157 261 278 155 178 80 83 297 292 353 21 3 357 3 354 340 332 327 325 324 322 321 318 318 318 316 311 312 309 304 299 296
122 0 346 298 326 30 60 307 237 184 123 204 147 261 228 106 98 226 261 296 2 10 8 3 10 3 348 338 332 330 327 325 321 319 320 321 321 317 316 314 312 308 304 300
81 107 159 204 295 300 293 268 256 201 143 224 220 259 69 28 60 12 9 2 20 7 1 9 8 354 341 335 329 329 329 325 323 326 328 327 325 324 320 316 313 309 305 300
108 157 318 294 306 308 299 296 282 260 235 179 242 249 163 155 129 358 51 28 19 359 7 11 1 345 336 328 330 332 329 328 331 334 331 330 326 324 323 320 319 315 310 305
125 203 209 291 301 292 289 281 281 277 268 265 267 138 116 51 41 60 51 25 0 34 14 5 349 339 332 332 336 333 332 334 338 340 338 331 334 333 334 331 328 323 319 317
141 154 170 242 303 322 306 276 297 286 243 76 355 117 124 102 75 74 33 19 49 23 14 0 350 342 337 339 337 336 336 340 344 344 344 348 350 346 343 342 342 345 344 337
120 101 143 248 306 254 249 266 282 52 51 36 56 74 82 69 88 63 29 40 27 33 27 12 356 346 340 340 339 339 341 350 352 349 353 358 355 350 352 359 9 21 24 36
185 158 209 187 232 281 306 327 17 90 68 18 49 49 41 24 19 7 6 34 50 49 26 7 350 344 344 345 344 342 353 356 355 357 1 4 357 359 12 29 37 57 57 67
217 168 162 207 254 270 269 12 56 67 68 8 17 35 30 32 28 287 4 28 42 25 15 360 351 348 347 349 347 356 2 360 3 7 4 3 1 14 33 47 57 64 73 73
97 166 191 192 205 265 356 6 347 71 322 191 93 46 30 31 342 337 28 51 29 23 9 2 355 353 353 352 357 8 6 9 10 12 7 15 17 38 53 67 74 79 82 84
184 166 193 108 264 248 353 45 98 220 33 22 36 32 12 357 349 34 20 49 26 17 5 0 358 357 357 0 8 13 9 13 11 8 15 21 31 54 71 80 86 88 89 89
213 192 169 166 198 171 209 190 154 182 184 161 45 17 359 350 347 31 33 53 28 13 5 1 0 1 6 15 20 14 19 19 21 28 33 41 46 66 74 85 89 91 92 92
20 88 104 100 134 180 194 205 194 215 152 95 40 1 8 19 45 37 44 28 18 9 4 3 3 9 18 25 28 30 30 29 35 47 60 67 70 75 84 90 93 96 96 96
186 60 76 27 112 120 172 118 111 96 76 54 17 29 22 49 39 41 32 24 18 12 5 6 10 20 31 42 45 40 46 58 61 70 77 83 87 89 87 86 88 87 89 91
85 195 122 151 111 99 98 113 109 79 17 2 54 21 66 50 40 27 21 23 12 10 11 12 20 36 52 59 55 50 59 58 68 81 86 87 88 88 87 86 86 86 88 89